Lowell, ID

6:46 PM MDT on April 25, 2017 (GMT -0600)
Lowell

Weather History for KP69 - April, 2013

Change the Weather History Date:

Monday, April 1, 2013

  Actual Average Record
Temperature  
Mean Temperature 54 °F -  
Max Temperature 73 °F 54 °F 73 °F (2013)
Min Temperature 35 °F 33 °F 28 °F (1999)
Degree Days  
Heating Degree Days 11    
Growing Degree Days 4 (Base 50)    
Moisture  
Dew Point 39 °F    
Average Humidity 72    
Maximum Humidity 97    
Minimum Humidity 29    
Precipitation  
Precipitation 0.00 in - - ()
Sea Level Pressure  
Sea Level Pressure 29.99 in    
Wind  
Wind Speed 2 mph (NNW)    
Max Wind Speed 9 mph    
Max Gust Speed -    
Averages and records for this station are not official NWS values.
T = Trace of Precipitation, MM = Missing Value Source: NWS Daily Summary

Daily Weather History Graph

Daily Weather History Graph

Search for Another Location

Airport or City:

Trip Planner

Search our weather history database for the weather conditions in past years. The results will help you decide how hot, cold, wet, or windy it might be!

Date:

Astronomy

Apr. 01, 2013 Rise Set
Actual Time 7:21 AM MDT 8:10 PM MDT
Civil Twilight 6:50 AM MDT 8:40 PM MDT
Nautical Twilight 6:15 AM MDT 9:16 PM MDT
Astronomical Twilight 5:37 AM MDT 9:54 PM MDT
Moon 1:36 AM MDT (4/1) 10:58 AM MDT (4/1)
Length of Visible Light 13h 49m
Length of Day
12h 49m
Waning Gibbous, 66% of the Moon is Illuminated
Apr 1
Waning Gibbous
Apr 2
Last Quarter
Apr 10
New
Apr 18
First Quarter
Apr 25
Full

Hourly Weather History & Observations

Time (MDT) Temp. Windchill Dew Point Humidity Pressure Visibility Wind Dir Wind Speed Gust Speed Precip Events Conditions
12:52 AM 42.1 °F - 39.0 °F 89% 29.99 in - Calm Calm - N/A   Unknown
1:52 AM 39.9 °F 37.8 °F 37.9 °F 93% 29.99 in - North 3.5 mph - N/A   Unknown
2:52 AM 39.0 °F - 37.0 °F 93% 30.00 in - Calm Calm - N/A   Unknown
3:52 AM 37.9 °F 35.5 °F 37.0 °F 97% 30.00 in - NNW 3.5 mph - N/A   Unknown
4:52 AM 37.0 °F - 36.0 °F 96% 30.01 in - Calm Calm - N/A   Unknown
5:52 AM 37.0 °F 34.5 °F 35.1 °F 93% 30.03 in - NW 3.5 mph - N/A   Unknown
6:52 AM 36.0 °F - 34.0 °F 93% 30.05 in - Calm Calm - N/A   Unknown
7:52 AM 35.1 °F 31.0 °F 34.0 °F 96% 30.07 in - NNW 4.6 mph - N/A   Unknown
8:52 AM 36.0 °F 33.3 °F 34.0 °F 93% 30.08 in - NNW 3.5 mph - N/A   Unknown
9:52 AM 43.0 °F - 37.0 °F 80% 30.05 in - Calm Calm - N/A   Unknown
10:52 AM 50.0 °F - 37.9 °F 63% 30.02 in - Calm Calm - N/A   Unknown
11:52 AM 55.9 °F - 37.9 °F 51% 29.99 in - Calm Calm - N/A   Unknown
12:52 PM 62.1 °F - 37.0 °F 39% 29.96 in - Calm Calm - N/A   Unknown
1:52 PM 68.0 °F - 37.9 °F 33% 29.92 in - Calm Calm - N/A   Unknown
2:52 PM 70.0 °F - 37.9 °F 31% 29.90 in - SSE 8.1 mph - N/A   Unknown
3:52 PM 72.0 °F - 37.9 °F 29% 29.89 in - SSE 9.2 mph - N/A   Unknown
4:52 PM 73.0 °F - 39.0 °F 29% 29.88 in - SSE 4.6 mph - N/A   Unknown
5:52 PM 64.9 °F - 41.0 °F 42% 29.90 in - Variable 3.5 mph - N/A   Unknown
6:52 PM 57.0 °F - 45.0 °F 64% 29.92 in - Calm Calm - N/A   Unknown
7:52 PM 53.1 °F - 45.0 °F 74% 29.96 in - Calm Calm - N/A   Unknown
8:52 PM 48.9 °F - 43.0 °F 80% 29.99 in - Calm Calm - N/A   Unknown
9:52 PM 48.0 °F - 44.1 °F 86% 30.01 in - Calm Calm - N/A   Unknown
10:52 PM 46.0 °F - 43.0 °F 89% 30.04 in - Calm Calm - N/A   Unknown
11:52 PM 45.0 °F - 42.1 °F 90% 30.04 in - Calm Calm - N/A   Unknown